QPF
0.00 0.00 0.00 0.00 0.00 0.00 0.00 0.00 0.00 0.00 0.00 0.00 0.00 0.02 0.03 0.03 0.06 0.08 0.08 0.05 0.02 0.01 0.00 0.00 0.00 0.00 0.00 0.00 0.00 0.00 0.01 0.01 0.02 0.02 0.00 0.00 0.00 0.00 0.00 0.00 0.00 0.00 0.00 0.00
0.00 0.00 0.00 0.00 0.00 0.00 0.00 0.00 0.00 0.00 0.00 0.01 0.02 0.08 0.11 0.07 0.06 0.05 0.04 0.02 0.01 0.01 0.00 0.00 0.00 0.00 0.00 0.01 0.01 0.01 0.01 0.02 0.02 0.02 0.01 0.01 0.00 0.00 0.00 0.00 0.00 0.00 0.00 0.00
0.00 0.00 0.00 0.00 0.00 0.00 0.00 0.00 0.00 0.00 0.00 0.01 0.01 0.03 0.05 0.04 0.02 0.01 0.01 0.00 0.00 0.00 0.00 0.00 0.00 0.00 0.00 0.01 0.02 0.01 0.01 0.01 0.02 0.02 0.02 0.02 0.02 0.01 0.01 0.01 0.00 0.00 0.00 0.00
0.00 0.00 0.00 0.00 0.00 0.00 0.00 0.00 0.00 0.00 0.00 0.00 0.00 0.00 0.00 0.00 0.00 0.00 0.00 0.00 0.00 0.00 0.00 0.00 0.00 0.00 0.00 0.01 0.01 0.01 0.00 0.00 0.01 0.01 0.01 0.02 0.01 0.01 0.01 0.01 0.00 0.00 0.00 0.00
0.00 0.00 0.00 0.00 0.00 0.00 0.00 0.00 0.00 0.00 0.00 0.00 0.00 0.00 0.00 0.00 0.00 0.00 0.00 0.00 0.00 0.00 0.00 0.00 0.00 0.00 0.01 0.03 0.02 0.01 0.01 0.01 0.01 0.01 0.01 0.01 0.01 0.01 0.01 0.00 0.00 0.00 0.00 0.00
0.00 0.00 0.00 0.00 0.00 0.00 0.00 0.00 0.00 0.00 0.00 0.00 0.00 0.00 0.00 0.00 0.00 0.00 0.00 0.00 0.00 0.00 0.00 0.00 0.01 0.03 0.05 0.05 0.04 0.03 0.03 0.03 0.01 0.01 0.01 0.01 0.01 0.01 0.00 0.00 0.00 0.00 0.00 0.00
0.00 0.00 0.00 0.00 0.00 0.00 0.00 0.00 0.00 0.00 0.00 0.00 0.00 0.00 0.00 0.00 0.00 0.00 0.00 0.00 0.00 0.00 0.01 0.03 0.05 0.07 0.06 0.05 0.03 0.02 0.01 0.01 0.01 0.00 0.00 0.01 0.02 0.01 0.00 0.00 0.00 0.01 0.01 0.00
0.00 0.00 0.00 0.00 0.00 0.00 0.00 0.00 0.00 0.00 0.00 0.00 0.00 0.00 0.00 0.00 0.00 0.00 0.00 0.00 0.00 0.00 0.01 0.02 0.04 0.03 0.02 0.01 0.01 0.00 0.01 0.01 0.01 0.00 0.01 0.01 0.03 0.02 0.01 0.01 0.01 0.01 0.01 0.00
0.00 0.00 0.00 0.00 0.00 0.00 0.00 0.00 0.00 0.00 0.00 0.00 0.00 0.00 0.00 0.00 0.00 0.00 0.00 0.00 0.00 0.00 0.01 0.02 0.02 0.02 0.01 0.00 0.00 0.00 0.00 0.01 0.01 0.00 0.00 0.01 0.02 0.02 0.01 0.01 0.01 0.00 0.00 0.00
0.00 0.00 0.00 0.00 0.00 0.00 0.00 0.00 0.00 0.00 0.00 0.00 0.00 0.00 0.00 0.00 0.00 0.00 0.00 0.00 0.00 0.00 0.00 0.02 0.02 0.01 0.01 0.00 0.00 0.00 0.00 0.00 0.00 0.00 0.00 0.00 0.01 0.01 0.00 0.00 0.00 0.00 0.00 0.00
0.00 0.00 0.00 0.00 0.00 0.00 0.00 0.00 0.00 0.00 0.00 0.00 0.00 0.00 0.00 0.00 0.00 0.00 0.00 0.00 0.00 0.00 0.00 0.02 0.02 0.01 0.00 0.00 0.00 0.00 0.00 0.00 0.00 0.00 0.00 0.00 0.00 0.00 0.00 0.00 0.00 0.00 0.01 0.02
0.00 0.00 0.00 0.00 0.00 0.00 0.00 0.00 0.00 0.00 0.00 0.00 0.00 0.00 0.00 0.00 0.00 0.00 0.00 0.00 0.00 0.00 0.00 0.01 0.01 0.01 0.00 0.00 0.00 0.00 0.00 0.00 0.00 0.00 0.00 0.00 0.00 0.00 0.00 0.00 0.00 0.00 0.00 0.00
0.00 0.00 0.00 0.00 0.00 0.00 0.00 0.00 0.00 0.00 0.00 0.00 0.00 0.00 0.00 0.00 0.00 0.00 0.00 0.00 0.00 0.00 0.00 0.00 0.00 0.00 0.00 0.00 0.00 0.00 0.00 0.00 0.00 0.00 0.00 0.00 0.00 0.00 0.00 0.00 0.00 0.00 0.00 0.00
0.00 0.00 0.00 0.00 0.00 0.00 0.00 0.00 0.00 0.00 0.00 0.00 0.00 0.00 0.00 0.00 0.00 0.00 0.00 0.00 0.00 0.00 0.00 0.00 0.00 0.00 0.00 0.00 0.00 0.00 0.00 0.00 0.00 0.00 0.00 0.00 0.00 0.00 0.00 0.00 0.00 0.00 0.00 0.00
0.00 0.00 0.00 0.00 0.00 0.00 0.00 0.00 0.00 0.00 0.00 0.00 0.00 0.00 0.00 0.00 0.00 0.00 0.00 0.00 0.00 0.00 0.00 0.00 0.00 0.00 0.00 0.00 0.00 0.00 0.00 0.00 0.00 0.00 0.00 0.00 0.00 0.00 0.00 0.00 0.00 0.00 0.00 0.00
0.00 0.00 0.00 0.00 0.00 0.00 0.00 0.00 0.00 0.00 0.00 0.00 0.00 0.00 0.00 0.00 0.00 0.00 0.00 0.00 0.00 0.00 0.00 0.00 0.00 0.00 0.00 0.00 0.00 0.00 0.00 0.00 0.00 0.00 0.00 0.00 0.00 0.00 0.00 0.00 0.00 0.00 0.00 0.00
0.00 0.01 0.02 0.02 0.02 0.02 0.02 0.01 0.00 0.00 0.00 0.00 0.00 0.00 0.00 0.00 0.00 0.00 0.00 0.00 0.00 0.00 0.00 0.00 0.00 0.00 0.00 0.00 0.00 0.00 0.00 0.00 0.00 0.00 0.00 0.00 0.00 0.00 0.00 0.00 0.00 0.00 0.00 0.00
0.04 0.06 0.08 0.08 0.06 0.04 0.02 0.01 0.01 0.00 0.00 0.00 0.00 0.00 0.00 0.00 0.00 0.00 0.00 0.00 0.00 0.00 0.00 0.00 0.00 0.00 0.00 0.00 0.00 0.00 0.00 0.00 0.00 0.00 0.00 0.00 0.00 0.00 0.00 0.00 0.00 0.00 0.00 0.00
0.07 0.09 0.09 0.06 0.03 0.02 0.01 0.01 0.01 0.01 0.00 0.00 0.00 0.00 0.00 0.00 0.00 0.00 0.00 0.00 0.00 0.00 0.00 0.00 0.00 0.00 0.00 0.00 0.00 0.00 0.00 0.00 0.00 0.00 0.00 0.00 0.00 0.00 0.00 0.00 0.00 0.00 0.00 0.00
0.14 0.16 0.15 0.12 0.08 0.06 0.05 0.04 0.03 0.02 0.01 0.01 0.00 0.00 0.00 0.00 0.00 0.00 0.00 0.00 0.00 0.00 0.00 0.00 0.00 0.00 0.00 0.00 0.00 0.00 0.00 0.00 0.00 0.00 0.00 0.00 0.00 0.00 0.00 0.00 0.00 0.00 0.00 0.00
0.20 0.25 0.27 0.26 0.24 0.21 0.17 0.12 0.08 0.05 0.03 0.02 0.01 0.01 0.01 0.01 0.00 0.00 0.00 0.00 0.00 0.00 0.00 0.00 0.00 0.00 0.00 0.00 0.00 0.00 0.00 0.00 0.00 0.00 0.00 0.00 0.00 0.00 0.00 0.00 0.00 0.00 0.00 0.00
0.28 0.34 0.33 0.32 0.32 0.31 0.26 0.19 0.11 0.06 0.03 0.02 0.03 0.04 0.04 0.04 0.02 0.01 0.00 0.00 0.00 0.00 0.00 0.00 0.00 0.00 0.00 0.00 0.00 0.00 0.00 0.00 0.00 0.00 0.00 0.00 0.00 0.00 0.00 0.00 0.00 0.00 0.00 0.00
0.19 0.23 0.22 0.21 0.19 0.15 0.12 0.09 0.06 0.03 0.01 0.01 0.01 0.03 0.03 0.03 0.02 0.01 0.00 0.00 0.00 0.00 0.00 0.00 0.00 0.01 0.01 0.01 0.01 0.01 0.01 0.00 0.00 0.00 0.00 0.00 0.00 0.00 0.00 0.00 0.00 0.00 0.00 0.00
0.04 0.05 0.07 0.07 0.07 0.06 0.04 0.02 0.01 0.00 0.00 0.00 0.00 0.02 0.02 0.01 0.01 0.01 0.01 0.01 0.01 0.01 0.01 0.00 0.01 0.01 0.01 0.01 0.00 0.00 0.00 0.00 0.00 0.00 0.00 0.00 0.00 0.00 0.00 0.00 0.00 0.00 0.00 0.00
0.01 0.01 0.01 0.01 0.01 0.01 0.00 0.00 0.00 0.00 0.00 0.00 0.01 0.01 0.02 0.02 0.01 0.01 0.01 0.01 0.01 0.01 0.01 0.01 0.01 0.00 0.00 0.00 0.00 0.00 0.00 0.00 0.00 0.00 0.00 0.00 0.00 0.00 0.00 0.00 0.00 0.00 0.00 0.00
0.00 0.00 0.00 0.00 0.01 0.01 0.01 0.01 0.02 0.03 0.02 0.01 0.01 0.02 0.04 0.04 0.03 0.02 0.01 0.01 0.01 0.01 0.01 0.01 0.00 0.00 0.00 0.00 0.00 0.00 0.00 0.00 0.00 0.00 0.00 0.00 0.00 0.00 0.00 0.00 0.00 0.00 0.00 0.00
0.01 0.01 0.01 0.01 0.01 0.02 0.03 0.05 0.05 0.05 0.05 0.04 0.02 0.02 0.02 0.04 0.05 0.04 0.04 0.03 0.03 0.02 0.01 0.00 0.00 0.00 0.00 0.00 0.00 0.00 0.00 0.00 0.00 0.00 0.00 0.00 0.00 0.00 0.00 0.00 0.00 0.00 0.00 0.00
MSLP
1015.58 1015.94 1016.28 1016.59 1016.84 1017.01 1017.06 1016.99 1016.77 1016.42 1015.97 1015.44 1014.89 1014.36 1013.90 1013.53 1013.28 1013.15 1013.11 1013.16 1013.26 1013.39 1013.51 1013.61 1013.68 1013.72 1013.75 1013.76 1013.77 1013.78 1013.81 1013.85 1013.90 1013.96 1014.02 1014.07 1014.11 1014.13 1014.12 1014.07 1013.99 1013.87 1013.72 1013.53
1015.39 1015.63 1015.81 1015.93 1015.99 1015.97 1015.88 1015.71 1015.47 1015.18 1014.84 1014.49 1014.15 1013.84 1013.58 1013.39 1013.26 1013.20 1013.19 1013.24 1013.31 1013.40 1013.50 1013.60 1013.68 1013.75 1013.81 1013.86 1013.89 1013.92 1013.94 1013.97 1013.99 1014.02 1014.06 1014.10 1014.15 1014.19 1014.21 1014.21 1014.18 1014.11 1013.99 1013.83
1015.09 1015.20 1015.23 1015.18 1015.07 1014.91 1014.71 1014.49 1014.26 1014.05 1013.85 1013.68 1013.55 1013.45 1013.37 1013.33 1013.30 1013.30 1013.31 1013.33 1013.37 1013.42 1013.48 1013.56 1013.64 1013.73 1013.82 1013.89 1013.95 1013.99 1014.02 1014.03 1014.04 1014.05 1014.08 1014.12 1014.17 1014.24 1014.31 1014.36 1014.38 1014.37 1014.30 1014.19
1014.76 1014.73 1014.61 1014.42 1014.17 1013.89 1013.61 1013.37 1013.17 1013.04 1012.97 1012.96 1013.01 1013.08 1013.17 1013.25 1013.31 1013.34 1013.36 1013.37 1013.37 1013.38 1013.41 1013.47 1013.55 1013.65 1013.76 1013.86 1013.95 1014.01 1014.05 1014.07 1014.07 1014.07 1014.09 1014.14 1014.21 1014.31 1014.42 1014.53 1014.61 1014.66 1014.65 1014.58
1014.47 1014.29 1014.02 1013.69 1013.32 1012.95 1012.62 1012.36 1012.19 1012.12 1012.15 1012.27 1012.45 1012.66 1012.87 1013.04 1013.17 1013.25 1013.27 1013.27 1013.25 1013.24 1013.26 1013.31 1013.41 1013.53 1013.67 1013.81 1013.93 1014.02 1014.08 1014.11 1014.12 1014.13 1014.15 1014.20 1014.29 1014.42 1014.57 1014.72 1014.86 1014.96 1015.00 1014.99
1014.20 1013.87 1013.47 1013.02 1012.55 1012.10 1011.72 1011.44 1011.28 1011.25 1011.35 1011.55 1011.83 1012.13 1012.42 1012.66 1012.85 1012.96 1013.01 1013.02 1013.01 1013.01 1013.04 1013.11 1013.23 1013.39 1013.58 1013.76 1013.93 1014.06 1014.14 1014.19 1014.22 1014.24 1014.27 1014.33 1014.44 1014.58 1014.76 1014.95 1015.12 1015.27 1015.36 1015.38
1013.89 1013.43 1012.91 1012.35 1011.80 1011.30 1010.88 1010.58 1010.42 1010.41 1010.54 1010.79 1011.11 1011.47 1011.82 1012.12 1012.36 1012.52 1012.61 1012.66 1012.68 1012.72 1012.78 1012.90 1013.07 1013.27 1013.51 1013.74 1013.95 1014.13 1014.25 1014.33 1014.39 1014.42 1014.47 1014.54 1014.66 1014.81 1015.00 1015.20 1015.40 1015.57 1015.69 1015.74
1013.43 1012.86 1012.25 1011.63 1011.03 1010.49 1010.05 1009.74 1009.58 1009.57 1009.71 1009.98 1010.33 1010.72 1011.11 1011.46 1011.75 1011.97 1012.12 1012.23 1012.32 1012.41 1012.54 1012.71 1012.93 1013.19 1013.48 1013.76 1014.02 1014.23 1014.40 1014.52 1014.60 1014.66 1014.73 1014.81 1014.93 1015.08 1015.27 1015.47 1015.67 1015.85 1015.98 1016.06
1012.72 1012.08 1011.42 1010.77 1010.16 1009.61 1009.18 1008.87 1008.71 1008.71 1008.86 1009.13 1009.50 1009.91 1010.34 1010.74 1011.09 1011.38 1011.61 1011.80 1011.97 1012.14 1012.34 1012.57 1012.84 1013.15 1013.47 1013.79 1014.09 1014.34 1014.55 1014.70 1014.82 1014.91 1015.00 1015.10 1015.22 1015.37 1015.55 1015.74 1015.93 1016.10 1016.23 1016.32
1011.69 1011.02 1010.36 1009.71 1009.12 1008.61 1008.21 1007.93 1007.80 1007.81 1007.97 1008.26 1008.64 1009.09 1009.55 1010.01 1010.43 1010.80 1011.13 1011.41 1011.67 1011.92 1012.18 1012.47 1012.78 1013.12 1013.46 1013.80 1014.12 1014.41 1014.64 1014.83 1014.99 1015.11 1015.23 1015.35 1015.48 1015.63 1015.79 1015.97 1016.14 1016.30 1016.43 1016.52
1010.34 1009.68 1009.04 1008.44 1007.92 1007.47 1007.13 1006.91 1006.82 1006.87 1007.06 1007.37 1007.78 1008.26 1008.77 1009.29 1009.78 1010.25 1010.66 1011.04 1011.38 1011.70 1012.02 1012.35 1012.69 1013.04 1013.39 1013.74 1014.06 1014.36 1014.62 1014.84 1015.04 1015.20 1015.35 1015.50 1015.65 1015.81 1015.97 1016.13 1016.29 1016.44 1016.56 1016.65
1008.75 1008.12 1007.54 1007.02 1006.58 1006.22 1005.96 1005.81 1005.79 1005.89 1006.11 1006.46 1006.90 1007.41 1007.98 1008.55 1009.13 1009.67 1010.17 1010.64 1011.05 1011.44 1011.81 1012.16 1012.51 1012.85 1013.19 1013.53 1013.85 1014.15 1014.43 1014.69 1014.92 1015.13 1015.32 1015.51 1015.69 1015.87 1016.04 1016.21 1016.36 1016.50 1016.62 1016.71
1007.09 1006.50 1005.99 1005.56 1005.21 1004.94 1004.77 1004.70 1004.74 1004.89 1005.15 1005.52 1005.99 1006.54 1007.14 1007.77 1008.41 1009.02 1009.60 1010.13 1010.62 1011.06 1011.46 1011.82 1012.17 1012.51 1012.83 1013.15 1013.46 1013.76 1014.06 1014.34 1014.61 1014.87 1015.12 1015.36 1015.58 1015.79 1015.99 1016.17 1016.33 1016.47 1016.59 1016.69
1005.56 1005.02 1004.58 1004.22 1003.95 1003.77 1003.67 1003.66 1003.74 1003.93 1004.21 1004.59 1005.07 1005.63 1006.25 1006.91 1007.59 1008.25 1008.88 1009.47 1010.01 1010.49 1010.91 1011.29 1011.64 1011.97 1012.28 1012.59 1012.89 1013.20 1013.52 1013.83 1014.14 1014.45 1014.75 1015.04 1015.32 1015.57 1015.80 1016.00 1016.18 1016.34 1016.47 1016.58
1004.35 1003.86 1003.46 1003.16 1002.95 1002.82 1002.77 1002.79 1002.89 1003.07 1003.34 1003.71 1004.17 1004.71 1005.32 1005.97 1006.66 1007.34 1008.00 1008.62 1009.19 1009.70 1010.15 1010.56 1010.92 1011.25 1011.56 1011.87 1012.18 1012.50 1012.84 1013.19 1013.54 1013.90 1014.25 1014.59 1014.91 1015.20 1015.47 1015.70 1015.91 1016.08 1016.22 1016.35
1003.60 1003.13 1002.77 1002.51 1002.32 1002.21 1002.17 1002.18 1002.26 1002.40 1002.63 1002.93 1003.33 1003.81 1004.37 1004.98 1005.64 1006.30 1006.96 1007.60 1008.18 1008.72 1009.20 1009.63 1010.01 1010.36 1010.70 1011.03 1011.36 1011.71 1012.07 1012.46 1012.85 1013.25 1013.64 1014.02 1014.38 1014.71 1015.01 1015.27 1015.49 1015.69 1015.85 1015.99
1003.33 1002.88 1002.54 1002.29 1002.10 1001.98 1001.91 1001.88 1001.90 1001.97 1002.11 1002.32 1002.62 1003.00 1003.47 1004.00 1004.58 1005.20 1005.82 1006.44 1007.03 1007.58 1008.08 1008.54 1008.97 1009.36 1009.74 1010.11 1010.48 1010.87 1011.27 1011.68 1012.11 1012.53 1012.96 1013.36 1013.74 1014.10 1014.41 1014.69 1014.94 1015.15 1015.33 1015.49
1003.48 1003.05 1002.71 1002.45 1002.25 1002.10 1001.97 1001.88 1001.81 1001.79 1001.82 1001.91 1002.08 1002.32 1002.66 1003.07 1003.55 1004.08 1004.64 1005.22 1005.79 1006.34 1006.87 1007.37 1007.84 1008.29 1008.72 1009.14 1009.57 1010.00 1010.44 1010.89 1011.34 1011.78 1012.22 1012.63 1013.02 1013.38 1013.70 1013.99 1014.25 1014.47 1014.67 1014.85
1003.89 1003.48 1003.14 1002.87 1002.64 1002.44 1002.26 1002.09 1001.94 1001.81 1001.71 1001.66 1001.69 1001.79 1001.97 1002.24 1002.59 1003.01 1003.48 1003.99 1004.52 1005.07 1005.61 1006.14 1006.65 1007.16 1007.66 1008.15 1008.63 1009.12 1009.60 1010.07 1010.54 1010.99 1011.42 1011.83 1012.21 1012.56 1012.87 1013.16 1013.42 1013.66 1013.87 1014.07
1004.36 1003.97 1003.63 1003.35 1003.10 1002.86 1002.62 1002.38 1002.14 1001.91 1001.70 1001.52 1001.40 1001.36 1001.39 1001.51 1001.71 1002.00 1002.37 1002.79 1003.27 1003.78 1004.32 1004.87 1005.43 1005.99 1006.55 1007.11 1007.65 1008.19 1008.71 1009.21 1009.69 1010.14 1010.56 1010.95 1011.31 1011.64 1011.94 1012.22 1012.48 1012.73 1012.96 1013.18
1004.71 1004.33 1004.00 1003.70 1003.43 1003.16 1002.87 1002.58 1002.27 1001.96 1001.65 1001.37 1001.13 1000.95 1000.84 1000.82 1000.89 1001.05 1001.30 1001.63 1002.04 1002.50 1003.02 1003.58 1004.17 1004.78 1005.39 1006.00 1006.60 1007.19 1007.74 1008.27 1008.76 1009.21 1009.62 1010.00 1010.34 1010.64 1010.93 1011.20 1011.46 1011.72 1011.96 1012.21
1004.82 1004.44 1004.11 1003.80 1003.50 1003.21 1002.89 1002.56 1002.21 1001.84 1001.46 1001.10 1000.77 1000.48 1000.26 1000.12 1000.06 1000.10 1000.25 1000.48 1000.81 1001.23 1001.72 1002.27 1002.86 1003.50 1004.15 1004.81 1005.45 1006.08 1006.67 1007.22 1007.73 1008.19 1008.59 1008.96 1009.28 1009.58 1009.86 1010.13 1010.40 1010.66 1010.94 1011.21
1004.65 1004.27 1003.91 1003.59 1003.27 1002.94 1002.60 1002.24 1001.86 1001.46 1001.05 1000.64 1000.25 999.89 999.59 999.35 999.20 999.15 999.19 999.34 999.59 999.95 1000.40 1000.92 1001.52 1002.16 1002.83 1003.52 1004.21 1004.87 1005.49 1006.07 1006.59 1007.06 1007.48 1007.85 1008.17 1008.48 1008.76 1009.04 1009.32 1009.61 1009.92 1010.23
1004.25 1003.84 1003.45 1003.09 1002.73 1002.38 1002.02 1001.63 1001.23 1000.82 1000.39 999.96 999.54 999.14 998.79 998.50 998.29 998.16 998.12 998.20 998.39 998.69 999.09 999.58 1000.16 1000.80 1001.48 1002.18 1002.89 1003.57 1004.22 1004.83 1005.38 1005.87 1006.30 1006.69 1007.04 1007.36 1007.67 1007.97 1008.28 1008.61 1008.95 1009.31
1003.71 1003.25 1002.81 1002.40 1002.00 1001.60 1001.20 1000.80 1000.38 999.96 999.52 999.09 998.67 998.27 997.90 997.58 997.33 997.16 997.08 997.10 997.24 997.48 997.84 998.30 998.84 999.46 1000.13 1000.84 1001.55 1002.25 1002.92 1003.55 1004.13 1004.65 1005.11 1005.53 1005.91 1006.27 1006.61 1006.96 1007.31 1007.68 1008.07 1008.48
1003.13 1002.61 1002.11 1001.64 1001.18 1000.73 1000.28 999.85 999.41 998.98 998.55 998.13 997.72 997.33 996.97 996.65 996.39 996.21 996.10 996.10 996.19 996.40 996.71 997.13 997.64 998.23 998.88 999.57 1000.28 1000.98 1001.66 1002.31 1002.91 1003.46 1003.97 1004.42 1004.85 1005.25 1005.64 1006.03 1006.44 1006.86 1007.31 1007.77
1002.58 1002.01 1001.45 1000.90 1000.38 999.87 999.37 998.90 998.44 998.00 997.57 997.16 996.77 996.41 996.08 995.79 995.55 995.37 995.26 995.24 995.32 995.50 995.77 996.15 996.63 997.18 997.80 998.46 999.15 999.85 1000.53 1001.19 1001.81 1002.38 1002.92 1003.42 1003.89 1004.34 1004.79 1005.24 1005.70 1006.18 1006.68 1007.20
Thickness
5671 5677 5679 5676 5673 5661 5644 5633 5617 5620 5622 5627 5626 5621 5615 5609 5605 5604 5606 5611 5615 5617 5620 5623 5625 5627 5630 5632 5633 5633 5633 5634 5635 5635 5635 5635 5633 5632 5632 5632 5632 5632 5632 5634
5668 5675 5674 5671 5673 5667 5657 5649 5635 5630 5626 5633 5629 5622 5613 5606 5602 5600 5600 5603 5606 5610 5612 5614 5616 5618 5620 5623 5625 5626 5626 5626 5627 5627 5627 5626 5625 5624 5623 5622 5621 5620 5620 5622
5645 5660 5658 5652 5667 5668 5664 5661 5648 5632 5631 5631 5623 5617 5610 5605 5603 5601 5601 5602 5603 5604 5605 5606 5608 5610 5611 5613 5616 5617 5617 5617 5617 5616 5616 5615 5615 5615 5614 5612 5611 5610 5609 5609
5635 5640 5632 5651 5676 5677 5667 5662 5656 5647 5639 5631 5625 5620 5615 5610 5605 5603 5604 5604 5603 5602 5601 5601 5602 5603 5604 5606 5607 5608 5608 5607 5606 5606 5604 5603 5603 5603 5603 5602 5600 5599 5598 5599
5623 5621 5633 5657 5671 5671 5659 5652 5654 5647 5642 5636 5629 5620 5615 5616 5612 5607 5605 5603 5601 5600 5599 5599 5599 5600 5601 5601 5602 5601 5600 5598 5597 5596 5594 5593 5592 5592 5592 5591 5590 5589 5589 5590
5622 5614 5615 5646 5672 5676 5660 5641 5652 5650 5643 5637 5624 5608 5612 5620 5616 5610 5606 5603 5601 5600 5600 5599 5599 5599 5598 5597 5595 5593 5591 5589 5587 5586 5585 5584 5584 5584 5583 5583 5581 5580 5578 5577
5622 5614 5625 5656 5668 5664 5634 5635 5651 5652 5646 5637 5627 5627 5627 5623 5616 5611 5607 5604 5603 5601 5599 5599 5598 5596 5593 5590 5587 5585 5582 5580 5579 5578 5578 5578 5577 5578 5577 5575 5573 5571 5568 5564
5621 5612 5619 5659 5657 5645 5645 5655 5654 5652 5649 5643 5638 5635 5629 5623 5617 5611 5607 5604 5603 5599 5596 5596 5595 5591 5587 5583 5581 5578 5575 5573 5572 5572 5573 5573 5573 5573 5572 5569 5565 5562 5559 5555
5630 5629 5648 5654 5654 5659 5658 5653 5653 5651 5652 5651 5641 5635 5631 5625 5620 5615 5611 5607 5604 5599 5596 5594 5592 5589 5584 5580 5576 5573 5570 5568 5568 5568 5569 5570 5570 5569 5567 5564 5560 5556 5552 5548
5634 5642 5649 5652 5655 5657 5655 5656 5658 5656 5654 5650 5643 5639 5633 5627 5622 5617 5613 5610 5606 5601 5596 5593 5591 5587 5584 5579 5575 5571 5567 5565 5564 5565 5565 5565 5565 5565 5563 5559 5554 5550 5546 5543
5631 5638 5643 5651 5654 5655 5655 5653 5654 5655 5654 5651 5647 5641 5636 5629 5623 5619 5615 5611 5607 5602 5598 5594 5591 5587 5583 5579 5574 5569 5565 5563 5562 5561 5560 5559 5557 5556 5555 5553 5551 5545 5541 5538
5637 5643 5638 5643 5651 5654 5652 5650 5651 5652 5651 5650 5648 5643 5638 5631 5625 5620 5615 5610 5605 5601 5597 5594 5590 5586 5582 5578 5573 5567 5563 5561 5559 5558 5556 5553 5551 5548 5548 5546 5544 5541 5537 5533
5655 5656 5652 5652 5654 5655 5653 5652 5652 5652 5651 5647 5646 5643 5638 5631 5625 5619 5615 5610 5606 5602 5598 5594 5589 5585 5581 5577 5572 5568 5564 5561 5558 5556 5553 5550 5547 5544 5539 5536 5535 5532 5529 5526
5663 5658 5652 5654 5654 5657 5657 5657 5656 5655 5653 5650 5645 5640 5636 5629 5623 5618 5615 5613 5609 5604 5598 5593 5588 5585 5582 5578 5573 5568 5564 5562 5558 5555 5552 5549 5546 5542 5538 5532 5527 5523 5521 5519
5666 5662 5659 5659 5657 5656 5657 5657 5654 5652 5650 5646 5642 5637 5632 5627 5623 5620 5617 5614 5608 5603 5598 5592 5588 5584 5582 5578 5573 5568 5564 5560 5558 5555 5552 5550 5547 5542 5537 5532 5526 5521 5516 5514
5666 5664 5661 5657 5655 5655 5655 5654 5650 5649 5648 5645 5640 5636 5632 5629 5625 5621 5616 5612 5605 5600 5596 5592 5587 5585 5581 5577 5572 5568 5565 5563 5559 5555 5551 5549 5546 5542 5538 5534 5528 5522 5517 5514
5656 5655 5655 5653 5652 5652 5652 5652 5651 5649 5647 5644 5641 5638 5633 5627 5622 5617 5614 5611 5607 5602 5597 5592 5588 5585 5580 5577 5573 5569 5566 5563 5561 5556 5551 5549 5545 5541 5537 5533 5528 5524 5520 5517
5647 5647 5646 5645 5644 5643 5645 5648 5650 5648 5646 5646 5643 5637 5631 5626 5622 5619 5616 5611 5605 5599 5595 5593 5589 5584 5580 5576 5572 5568 5565 5562 5559 5555 5552 5548 5544 5539 5535 5532 5529 5526 5521 5517
5624 5626 5626 5627 5625 5626 5630 5634 5638 5640 5641 5641 5638 5634 5630 5629 5628 5624 5618 5611 5605 5599 5596 5594 5590 5584 5579 5575 5572 5568 5565 5561 5558 5555 5552 5549 5545 5540 5536 5533 5531 5528 5523 5517
5605 5606 5607 5608 5610 5608 5605 5608 5616 5623 5627 5629 5629 5627 5624 5624 5624 5621 5617 5614 5614 5612 5607 5600 5594 5587 5581 5576 5572 5569 5565 5562 5559 5556 5552 5547 5544 5541 5538 5536 5533 5529 5525 5520
5591 5590 5590 5593 5595 5595 5591 5588 5593 5600 5608 5614 5616 5617 5617 5618 5618 5616 5613 5612 5617 5615 5610 5603 5598 5592 5586 5580 5573 5570 5566 5563 5560 5557 5554 5550 5547 5543 5540 5538 5535 5531 5526 5522
5576 5577 5577 5578 5579 5581 5581 5580 5582 5587 5595 5601 5605 5608 5609 5610 5613 5613 5614 5616 5618 5614 5609 5605 5601 5596 5590 5584 5578 5573 5568 5565 5562 5559 5557 5554 5551 5547 5543 5539 5536 5532 5529 5526
5558 5561 5562 5563 5563 5565 5567 5571 5577 5582 5587 5592 5596 5598 5600 5602 5606 5608 5611 5618 5619 5614 5609 5607 5603 5597 5590 5585 5580 5575 5570 5567 5564 5561 5558 5555 5553 5550 5546 5542 5538 5534 5531 5527
5539 5543 5547 5550 5551 5552 5555 5562 5569 5577 5582 5586 5590 5593 5595 5597 5601 5607 5613 5616 5616 5614 5611 5606 5600 5595 5587 5585 5581 5576 5572 5568 5566 5564 5561 5557 5554 5550 5546 5542 5539 5535 5532 5528
5516 5522 5529 5534 5538 5543 5549 5556 5561 5567 5571 5576 5581 5585 5589 5591 5593 5599 5605 5611 5613 5611 5609 5605 5599 5594 5589 5585 5582 5578 5575 5571 5569 5567 5564 5560 5556 5551 5547 5543 5539 5536 5532 5528
5498 5502 5507 5515 5523 5530 5538 5545 5551 5557 5561 5565 5571 5575 5578 5581 5583 5588 5594 5601 5607 5606 5607 5604 5600 5593 5591 5587 5584 5581 5577 5574 5571 5569 5566 5562 5558 5553 5548 5545 5541 5538 5532 5526
5481 5486 5491 5498 5508 5517 5526 5534 5540 5546 5551 5555 5560 5565 5568 5571 5574 5578 5583 5590 5599 5601 5602 5602 5599 5595 5591 5588 5585 5582 5579 5576 5573 5571 5568 5563 5559 5554 5550 5546 5542 5536 5529 5522